Hourly Data Report for September 24, 2017

All times are specified in Local Standard Time (LST). Add 1 hour to adjust for Daylight Saving Time where and when it is observed.

WINNIPEG A CS
MANITOBA

49°55'00.000" N
97°14'58.000" W
238.70 m
502S001
71849
XWG

Download Data

Hourly Data (September 2017)
Hourly Data Report for September 24, 2017
Temp Definition
°C
Dew Point Temp Definition
°C
Rel Hum Definition
%
Wind Dir Definition
10's deg

Wind Spd Definition
km/h
Visibility Definition
km
Stn Press Definition
kPa
Hmdx Definition


Wind Chill Definition


Weather Definition


TIME
00:00 10.0 7.9 87 36 10   99.01     LegendNANA
01:00 9.6 8.3 91 35 11   98.98     LegendNANA
02:00 9.4 8.5 94 36 14   98.89     LegendNANA
03:00 9.6 8.9 95 36 13   98.84     LegendNANA
04:00 10.1 9.3 95 35 20   98.80     LegendNANA
05:00 9.6 8.7 95 35 15   98.82     LegendNANA
06:00 9.6 8.9 95 36 17   98.73     LegendNANA
07:00 9.6 8.9 96 1 22   98.65     LegendNANA
08:00 9.7 9.1 96 1 19   98.58     LegendNANA
09:00 10.0 9.3 95 35 21   98.57     LegendNANA
10:00 10.2 9.5 95 36 21   98.53     LegendNANA
11:00 10.3 9.5 95 34 23   98.55     LegendNANA
12:00 10.1 9.3 94 34 23   98.54     LegendNANA
13:00 10.1 9.1 94 35 25   98.44     LegendNANA
14:00 10.2 9.1 93 35 22   98.43     LegendNANA
15:00 10.1 9.0 93 34 24   98.47     LegendNANA
16:00 10.1 9.2 94 33 21   98.53     LegendNANA
17:00 9.9 9.2 95 33 22   98.54     LegendNANA
18:00 9.7 8.6 93 34 20   98.59     LegendNANA
19:00 9.4 8.2 92 34 22   98.61     LegendNANA
20:00 9.2 8.4 94 33 22   98.64     LegendNANA
21:00 9.0 8.1 94 34 19   98.69     LegendNANA
22:00 8.9 7.7 92 33 21   98.76     LegendNANA
23:00 8.8 7.5 92 34 19   98.80     LegendNANA

Notes on Data Quality.

Legend

  • E = Estimated
  • M = Missing
  • NA = Not Available
  • ‡ = Partner data that is not subject to review by the National Climate Archives
Date modified: